{"data":{"norad_id":59090,"epoch":"2026-09-20T16:13:14.450880Z","epoch_age_seconds":143614,"freshness":"FRESH","line1":"1 59090U 24041S   26263.67586170  .00000580  00000+0  30605-4 0  9993","line2":"2 59090  43.0026 242.7085 0001452 260.7847  99.2840 15.27579613144573","mean_motion":15.27579613,"eccentricity":0.0001452,"inclination_deg":43.0026,"raan_deg":242.7085,"arg_perigee_deg":260.7847,"mean_anomaly_deg":99.284,"bstar":3.0605e-5,"rev_number":14457,"period_min":94.266772595374,"perigee_km":482.05401046772,"apogee_km":484.04649924652,"semimajor_km":6861.1872548571,"source":"CELESTRAK","updated_at":"2026-09-21T09:00:34.036747Z"}}